Regional Weather Roundup
Issued by NWS New Orleans/Baton Rouge, LA

Home | Current Version | Previous Version | Graphics & Text | Print | Product List | Glossary On
Versions: 1 2 3 4 5 6 7 8 9 10 11 12 13 14 15 16 17 18 19 20 21 22 23 24 25 26 27 28 29 30 31 32 33 34 35 36 37 38 39 40 41 42 43 44 45 46 47 48 49 50
667
ASUS44 KLIX 172005
RWRLIX
NEW ORLEANS REGIONAL WEATHER ROUNDUP
NATIONAL WEATHER SERVICE NEW ORLEANS LA
300 PM CDT THU APR 17 2014

NOTE: "FAIR" INDICATES FEW OR NO CLOUDS BELOW 12,000 FEET WITH NO
      SIGNIFICANT WEATHER AND/OR OBSTRUCTIONS TO VISIBILITY.
      SKY/WX - SKY CONDITION AND SIGNIFICANT WEATHER.
      TMP - AIR TEMPERATURE.     DP    - DEWPOINT TEMPERATURE.
      RH  - RELATIVE HUMIDITY.   PRES  - PRESSURE.
      HI  - HEAT INDEX.          WCI   - WIND CHILL INDEX.

*  THESE STATIONS ARE NOT NWS OR FAA STATIONS AND ARE NOT UNDER
   NWS QUALITY CONTROL.

LAZ038-040-048-061>063-065>067-069-172100-
SOUTHEAST LOUISIANA

CITY           SKY/WX    TMP DP  RH WIND       PRES   REMARKS
N.O. AUDUBON   NOT AVBL
N.O. INTL ARPT CLOUDY    64  59  83 E15G23    30.14F
N.O. LAKEFRONT CLOUDY    63  60  90 E21       30.15F
N.O. DOWNTOWN* CLOUDY    63  55  77 NE7       30.14F
SLIDELL        CLOUDY    64  57  78 E7        30.17F
BATON ROUGE    CLOUDY    67  56  67 E8        30.15S
BOOTHVILLE     LGT RAIN  65  62  90 E14       30.14F FOG
BELLE CHASSE   CLOUDY    64  59  83 E13G21    30.14F FOG
BOGALUSA*        N/A     67  56  67 E8        30.19S
GALLIANO*      CLOUDY    67  63  85 MISG      30.14R FOG
NEW ROADS*       N/A     65  54  67 NE6       30.15F
GONZALES*      CLOUDY    65  59  82 NE5       30.15S
HAMMOND*       CLOUDY    66  55  68 E7        30.17F
HOUMA*         CLOUDY    64  59  82 NE9       30.13F
PORT FOURCHON* CLEAR     68  63  83 NE9       30.15R HAZE

$$

MSZ070-080>082-172100-
SOUTHERN MISSISSIPPI

CITY           SKY/WX    TMP DP  RH WIND       PRES   REMARKS
MCCOMB         CLOUDY    64  54  69 E8        30.17F
GULFPORT       CLOUDY    68  57  68 E5        30.16F
BILOXI         CLOUDY    65  58  77 S8        30.17S
PASCAGOULA     CLOUDY    69  58  67 SE8       30.16F

$$

COASTAL OBSERVATIONS
LAKE AND NEARSHORE STATIONS

STATION/POSITION TIME  TEMP    WIND        PRES    WAVE
                       AIR SEA DIR/SP/G            HT/PER
                 (UTC) (F)     (DEG/KT/KT) (MB)    (FT/S)
PASCAGOULA       2000   66     110/ 13/ 17 1020.7
WAVELAND YACHT   2000   63 67  120/  8/ 12 1020.8
GRAND ISLE       2000   66 67   70/ 11/ 17 1020.6
SOUTHWEST PASS   2000   70 59   70/ 17/ 19 1020.0
NEW CANAL        2000   63 63   80/ 13/ 18 1020.9
SHELL BEACH      2000   61 61   40/ 17/ 18 1021.0

OFFSHORE STATIONS

STATION/POSITION TIME  TEMP    WIND        PRES    WAVE
                       AIR SEA DIR/SP/G            HT/PER
                 (UTC) (F)     (DEG/KT/KT) (MB)    (FT/S)
64 S DAUPHIN ISL 1930   66 71   70/ 23/ 27 1020.0

$$




USA.gov is the U.S. government's official web portal to all federal, state and local government web resources and services.